Regional & State Weather Roundups


505 
ASUS41 KBOX 110310
RWRBOX
REGIONAL WEATHER ROUNDUP
NATIONAL WEATHER SERVICE TAUNTON MA
1000 PM EST SUN DEC 10 2017
NOTE:  "FAIR" INDICATES FEW OR NO CLOUDS BELOW 12,000 FEET WITH NO 
SIGNIFICANT WEATHER AND/OR OBSTRUCTIONS TO VISIBILITY.
MAZALL-110400-
EASTERN MASSACHUSETTS
  
CITY           SKY/WX    TMP DP  RH WIND       PRES   REMARKS
BOSTON         CLOUDY    33  24  69 SW13      29.95S WCI  24          
BEVERLY        CLOUDY    33  24  69 SW8       29.94R WCI  26          
LAWRENCE       MOCLDY    32  23  69 S5        29.95R WCI  27          
BEDFORD        CLOUDY    30  23  75 SW6       29.93R WCI  24          
BLUE HILL        N/A     30  21  69 SW15      29.92R WCI  19          
NORWOOD        MOCLDY    29  24  82 CALM      29.96S                  
MARSHFIELD     PTCLDY    32  25  74 SW6       29.97S WCI  26          
PLYMOUTH       PTCLDY    30  24  78 CALM      29.96F                  
TAUNTON        CLOUDY    27  25  92 CALM      29.96F                  
NEW BEDFORD    CLOUDY    28  27  96 CALM      29.97S                  
$$
MAZALL-110400-
CAPE COD AND THE ISLANDS
  
CITY           SKY/WX    TMP DP  RH WIND       PRES   REMARKS
FALMOUTH       PTCLDY    32  21  64 SW5       29.99S WCI  27          
HYANNIS        CLEAR     32  24  72 SW5       29.97S WCI  27          
CHATHAM        CLEAR     33  24  69 W6        30.00R WCI  28          
PROVINCETOWN   CLEAR     36  25  64 SW15      29.98R WCI  27          
NANTUCKET      CLOUDY    39  23  52 W7        29.99R                  
MARTHAS VNYRD  CLOUDY   N/A N/A N/A W3        29.98S                  
$$
 
MAZALL-110400-
CENTRAL AND WESTERN MASSACHUSETTS
  
CITY           SKY/WX    TMP DP  RH WIND       PRES   REMARKS
WORCESTER      CLOUDY    26  20  77 SW9       29.90R WCI  17          
FITCHBURG      PTCLDY    32  23  69 SW3       29.93R                  
ORANGE         CLOUDY    22  22 100 S3        29.91R                  
SPRINGFIELD    CLOUDY    30  22  71 S8        29.92R WCI  22          
WESTFIELD      CLOUDY    30  23  75 S6        29.93R WCI  24          
NORTH ADAMS    CLOUDY    30  22  72 NW5       29.88S WCI  25          
PITTSFIELD     CLOUDY    30  20  66 SW7       29.85S WCI  23          
$$
 
RIZALL-110400-
RHODE ISLAND
  
CITY           SKY/WX    TMP DP  RH WIND       PRES   REMARKS
PROVIDENCE     CLOUDY    34  24  67 W7        29.97S WCI  28          
NEWPORT        CLOUDY    37  23  56 VRB6      29.97S                  
BLOCK ISLAND     N/A    N/A N/A N/A MISG        N/A                   
SMITHFIELD     CLOUDY    30  23  75 VRB3      29.95S                  
WESTERLY       CLOUDY    38  24  57 VRB5      29.99R                  
$$
 
CTZALL-110400-
CONNECTICUT
  
CITY           SKY/WX    TMP DP  RH WIND       PRES   REMARKS
BRADLEY INTL   CLOUDY    34  23  64 SW9       29.95R WCI  27          
HARTFORD       CLOUDY    35  23  61 SW7       29.97R WCI  29          
BRIDGEPORT     CLOUDY    37  22  54 W12G22    30.00R WCI  29          
DANBURY        CLOUDY    34  21  59 SW7       29.98R WCI  28          
GROTON         CLOUDY    37  21  52 W12       29.98S WCI  29          
NEW HAVEN      CLOUDY    38  23  55 W14G23    29.99R WCI  30          
CHESTER        FAIR      34  21  60 VRB5G13   29.97R WCI  30          
MERIDEN        PTCLDY    33  21  61 S6        29.98R WCI  28          
WILLIMANTIC    CLOUDY    33  23  66 SW6       29.97R WCI  28          
OXFORD         MOCLDY    31  22  69 SW5       29.96R WCI  26          
$$
MEZ002-015-021-024-NHZ003-005-008-011-012-014-VTZ005-008-110400-
NORTHERN NEW ENGLAND
  
CITY           SKY/WX    TMP DP  RH WIND       PRES   REMARKS
PORTLAND ME    CLEAR     29  21  72 SW13      29.89S WCI  19          
BANGOR ME      CLEAR     16  14  92 NW3       29.86R                  
CONCORD NH     CLOUDY    27  19  72 CALM      29.89S                  
MANCHESTER NH  MOCLDY    30  21  69 S5        29.90S WCI  25          
NASHUA NH      CLOUDY    24  23  96 CALM      29.92S                  
PORTSMOUTH NH  CLOUDY    29  21  72 SW3       29.91R                  
JAFFREY NH     CLOUDY    21  19  92 S5        29.87S WCI  15          
KEENE NH       CLOUDY    23  20  88 CALM      29.90S                  
BURLINGTON VT  CLOUDY    31  21  66 S12       29.82S WCI  22          
MT. WASHINGTON SNOW       3   3 100 W37G45      N/A  VSB 0   WCI -24  
$$
NYZ052-076-110400-
EASTERN NEW YORK
  
CITY           SKY/WX    TMP DP  RH WIND       PRES   REMARKS
ALBANY         CLOUDY    31  21  66 S7        29.90S WCI  24          
NEW YORK CITY  CLOUDY    37  20  50 SW14      30.01S WCI  28          
$$
 
ANZALL-110400-
MARINE OBSERVATIONS
  
STATION/POSITION TIME  TEMP    WIND        PRES    VSBY  WAVE
                       AIR SEA DIR/SP/G                  HT/PER
                 (UTC) (F)     (DEG/KT/KT) (MB)    (MI)  (FT/S)
BOSTON BUOY      0250   38 48  210/ 17/ 21 1013.3R         3/13
BUZZARDS BAY     0200   40     270/ 15/ 17 1015.4R
NANTUCKET SOUND  0150   40 45  280/ 16/ 19 1014.9          2/ 4
MASS BAY-STELLWA 0204   39 47  260/ 19/ 23 1013.2R         4/ 4
ISLE OF SHOALS   0200   35     240/ 19/ 21 1012.6R
S OF BLOCK IS    0243      53                N/A           8/11
$$
......................KEY.........................
  SKY/WX - SKY CONDITION/PRESENT WEATHER
  TMP    - TEMPERATURE IN FAHRENHEIT
  DWPT   - DEWPOINT IN FAHRENHEIT
  RH     - RELATIVE HUMIDITY IN PERCENT
  WIND   - DIRECTION AND SPEED IN MPH
  PRES   - MEAN SEA LEVEL PRESSURE IN INCHES OF HG
  WCI    - WIND CHILL INDEX
  VSB    - VISIBILITY IN MILES
  HX     - HEAT INDEX
  TC     - TEMPERATURE IN CELSIUS
  VRB    - VARIABLE WIND DIRECTION
  N/A    - NOT AVAILABLE